SCP
0 0 0 0 0 0 0 0 0 0 0 0 0 0 0 0 0 0 0 0 0 0 0 0 0 0 0 0 0 0 0 0 0 0 0 0 0 0 0 0 0 0 0 0 0
0 0 0 0 0 0 0 0 0 0 0 0 0 0 0 0 0 0 0 0 0 0 0 0 0 0 0 0 0 0 0 0 0 0 0 0 0 0 0 0 0 0 0 0 0
0 0 0 0 0 0 0 0 0 0 0 0 0 0 0 0 -0 -0 0 0 0 0 0 0 0 0 0 0 0 0 0 0 0 0 0 0 0 0 0 0 0 0 0 0 0
0 0 0 0 0 0 0 0 0 0 0 0 0 0 0 0 0 0 0 0 0 0 0 0 0 0 0 0 0 0 0 0 0 0 0 0 0 0 0 0 0 0 0 0 0
0 0 0 0 0 0 0 0 0 0 0 0 0 0 0 0 0 0 0 0 0 0 0 0 0 0 0 0 0 0 0 0 0 0 0 0 0 0 0 0 0 0 0 0 0
0 0 0 0 0 0 0 0 0 0 0 0 0 0 0 0 0 0 0 0 0 0 0 0 0 0 0 0 0 0 0 0 0 0 0 0 0 0 0 0 0 0 0 0 0
0 0 0 0 -0 -0 -0 -0 -0 -0 -0 0 0 0 0 0 0 0 0 0 0 0 0 0 0 0 0 0 0 0 0 0 0 0 0 0 0 0 0 0 0 0 0 0 0
0 -0 -0 -0 -0 -0 -0 -0 -0 -0 -0 -0 0 0 -0 0 0 0 0 0 0 0 0 0 0 0 0 0 0 0 0 0 0 0 0 0 0 0 0 0 0 0 0 0 0
0 0 0 -0 -0 -0 -0 -0 -0 -0 0 0 0 0 0 0 0 0 0 0 0 0 0 0 0 0 0 0 0 0 0 0 0 0 0 0 0 0 0 0 0 0 0 0 0
0 0 0 -0 -0 -0 -0 -0 -0 -0 0 0 0 0 0 0 0 0 0 0 0 0 0 0 0 0 0 0 0 0 0 0 0 0 0 0 0 0 0 0 0 0 0 0 0
0 -0 0 0 0 0 0 -0 -0 -0 0 -0 -0 -0 0 0 -0 0 0 0 0 0 0 0 0 0 0 0 0 0 0 0 0 0 0 0 0 0 0 0 0 0 0 0 0
0 -0 -0 0 -0 0 0 -0 0 0 -0 -0 -0 -0 -0 0 0 0 0 0 0 0 0 0 0 0 0 0 0 0 0 0 0 0 0 0 0 0 0 0 0 0 0 0 0
0 0 0 0 0 0 0 0 0 0 0 -0 -0 0 0 0 0 0 0 0 0 0 0 0 0 0 0 0 0 0 0 0 0 0 0 0 0 0 0 0 0 0 0 0 0
0 0 0 0 0 0 0 0 0 0 0 0 0 0 0 0 0 0 -0 0 0 0 0 0 0 0 0 0 0 0 0 0 0 0 0 0 0 0 0 0 0 0 0 0 0
0 0 0 0 0 0 0 0 0 0 0 0 0 0 0 0 0 0 -0 -0 0 0 0 0 0 0 0 0 0 0 0 0 0 0 0 0 0 0 0 0 0 0 0 0 0
0 0 0 0 0 0 0 0 0 0 0 0 0 0 0 0 0 0 0 0 0 0 0 0 0 0 0 0 0 0 0 0 0 0 0 0 0 0 0 0 0 0 0 0 0
0 0 0 0 0 0 0 0 0 0 0 0 0 0 0 0 0 0 -0 -0 0 0 0 0 0 0 0 0 0 0 0 0 0 0 0 0 0 0 0 0 0 0 0 0 0
0 0 0 0 0 0 0 0 0 0 0 0 0 0 0 0 0 0 0 -0 0 0 0 0 0 0 0 0 0 0 0 0 0 0 0 0 0 0 0 0 0 0 0 0 0
0 0 0 0 0 0 0 0 0 0 0 0 0 0 0 0 0 0 0 0 0 0 0 0 0 0 0 0 0 0 0 0 0 0 0 0 0 0 0 0 0 0 0 0 0
0 0 0 0 0 0 0 0 0 0 0 0 0 0 0 0 0 0 0 0 0 0 0 0 0 0 0 0 0 0 0 0 0 0 0 0 0 0 0 0 0 0 0 0 0
0 0 0 0 0 0 0 0 0 0 0 0 0 0 0 0 0 0 0 0 -0 0 0 0 0 0 0 0 0 0 0 0 0 0 0 0 0 0 0 0 0 0 0 0 0
0 0 0 0 0 0 0 0 0 0 0 0 0 0 0 0 0 0 0 0 0 0 0 0 0 0 0 0 0 0 0 0 0 0 0 0 0 0 0 0 -0 -0 0 0 0
0 0 0 0 0 0 0 0 0 0 0 0 0 0 0 0 0 0 0 0 0 0 0 0 0 0 0 0 0 0 0 0 0 0 0 0 0 0 0 0 0 0 0 0 0
0 0 0 0 0 0 0 0 0 0 0 0 0 0 0 0 0 0 0 0 0 0 0 0 0 0 0 0 0 0 0 0 0 0 0 0 -0 -0 0 0 0 0 -0 0 0
0 0 0 0 0 0 0 0 0 0 0 0 0 0 0 0 0 0 0 0 0 0 0 0 0 0 0 0 0 0 0 0 0 0 0 0 0 0 0 0 0 0 0 0 0
0 0 0 0 0 0 0 0 0 0 0 0 0 0 0 0 0 0 0 0 0 0 0 0 0 0 0 0 0 0 0 0 0 0 0 0 0 0 0 0 0 0 0 0 0
0 0 0 0 0 0 0 0 0 0 0 0 0 0 0 0 0 0 0 0 0 0 0 0 0 0 0 0 0 0 0 0 0 0 0 0 0 0 0 0 0 0 0 0 0
Wind_Speed_500mb
32 34 37 39 36 36 31 34 33 33 34 38 39 41 45 39 35 31 19 19 22 23 20 18 14 12 9 10 11 11 11 19 16 15 6 11 13 7 4 6 7 7 3 11 15
35 40 38 36 36 35 36 37 37 37 39 40 39 39 41 38 35 24 19 19 18 17 13 12 10 8 7 8 9 16 14 22 7 10 4 8 10 10 8 10 10 11 10 9 16
30 30 33 34 33 36 37 37 38 37 37 39 41 41 37 32 26 11 11 12 13 13 12 10 9 3 11 9 13 9 23 16 8 11 5 4 7 3 7 10 8 7 12 12 18
33 31 33 34 34 37 39 39 39 40 42 43 42 40 35 25 10 7 11 16 19 16 15 13 6 4 6 11 9 13 15 11 3 7 8 11 6 14 17 19 3 5 3 10 18
31 33 36 38 39 40 40 40 40 42 43 43 40 33 30 11 12 26 26 24 24 23 18 14 10 7 12 5 5 15 8 7 8 9 14 9 19 23 19 30 26 28 25 18 18
35 37 36 38 40 41 42 42 41 42 44 35 35 19 13 9 12 21 26 25 25 22 15 7 8 12 6 6 11 0 8 14 9 12 10 13 22 16 23 35 42 36 36 32 27
37 38 39 40 41 43 44 44 43 44 38 34 28 10 10 19 16 18 20 20 22 24 19 6 4 7 7 4 2 3 15 18 21 14 9 9 29 27 45 45 39 39 38 34 35
40 42 41 42 43 45 48 51 54 32 27 26 14 13 4 9 16 26 26 20 17 11 17 20 13 3 4 1 3 8 8 25 9 19 19 19 51 20 24 39 40 38 39 34 35
39 38 39 41 45 43 51 53 36 10 45 10 11 14 6 5 13 15 23 29 15 13 5 4 10 9 6 10 12 12 33 33 22 20 8 33 44 25 7 24 27 21 16 16 21
36 40 42 44 45 47 54 46 12 12 21 13 30 3 17 27 27 21 19 22 12 6 7 4 6 9 7 16 30 25 23 23 31 5 15 32 39 26 30 30 33 39 37 33 33
38 43 46 43 41 47 55 52 31 13 37 15 16 7 23 36 24 15 12 17 7 10 7 4 9 14 13 19 24 20 17 22 9 8 17 28 37 33 32 39 40 46 51 52 48
39 42 43 44 33 41 43 30 24 15 15 22 21 22 22 31 17 37 26 8 8 14 12 8 17 9 8 12 18 21 28 35 26 20 25 34 50 44 41 52 58 55 56 58 58
38 42 41 42 27 39 34 38 31 26 7 14 15 17 22 20 12 25 34 14 13 15 15 17 9 10 17 12 17 21 26 25 26 22 27 29 47 41 34 45 51 52 53 53 52
38 39 39 36 22 37 22 34 31 18 3 18 13 14 22 19 4 17 24 14 9 16 17 7 7 14 20 25 20 29 11 21 24 18 15 4 18 20 13 20 22 30 27 28 27
35 34 32 32 32 27 29 30 28 4 4 25 9 12 26 13 20 5 30 8 14 16 6 13 14 15 16 15 16 17 1 10 17 23 23 31 17 8 4 17 17 16 6 1 7
32 31 30 30 32 25 24 27 9 3 4 8 9 22 28 28 17 16 13 10 5 7 10 19 9 10 11 14 17 7 13 18 12 14 18 32 25 23 20 20 12 8 9 12 10
29 29 31 29 21 19 21 13 2 6 5 9 13 20 34 15 14 11 24 19 9 9 12 17 20 5 9 12 5 16 12 8 11 12 19 6 18 32 11 7 4 10 12 12 14
29 29 31 25 14 17 18 4 5 2 8 7 11 29 8 16 12 23 18 18 11 10 16 14 13 9 13 7 5 6 10 12 13 14 12 6 13 13 11 17 23 20 14 17 21
30 29 26 14 6 16 8 4 6 10 1 11 19 4 5 5 12 14 10 15 9 9 9 8 10 4 11 4 4 5 11 6 12 20 16 18 18 20 15 19 18 19 20 21 26
28 27 17 5 1 15 5 2 4 6 2 3 5 2 7 15 12 11 9 5 10 3 1 6 13 15 7 4 17 16 4 10 8 11 21 19 25 20 9 13 10 7 18 18 23
24 13 8 6 1 5 3 7 8 12 7 6 7 7 12 10 6 9 11 19 20 13 7 3 10 12 3 14 24 11 13 11 7 10 15 24 17 6 6 7 5 11 14 19 31
12 6 11 9 1 2 4 9 4 9 11 13 11 19 15 14 11 10 13 10 24 9 19 10 7 15 31 24 13 20 27 27 16 19 16 23 29 29 27 28 27 30 20 31 39
11 10 13 14 6 7 4 8 11 11 10 11 10 17 13 9 10 16 21 14 36 17 10 6 9 13 12 10 9 14 27 27 16 12 31 30 33 24 30 20 29 36 50 51 59
11 6 9 25 16 8 9 11 9 16 17 14 13 17 16 11 20 15 25 19 13 36 41 33 14 26 30 25 4 11 18 26 27 17 32 33 49 46 47 47 47 44 44 49 52
21 12 16 10 16 26 19 12 12 9 21 18 8 28 18 9 15 27 31 28 35 37 27 10 22 28 31 34 43 43 38 32 28 41 37 45 47 47 48 51 55 58 60 54 52
25 13 16 8 12 26 24 18 33 24 17 14 22 27 26 21 27 35 37 28 24 18 15 8 19 19 29 38 40 40 40 43 53 56 50 53 54 55 68 72 70 70 65 53 56
41 50 30 23 14 14 18 30 30 23 28 44 27 24 25 44 47 50 50 49 35 31 32 24 18 17 36 37 34 28 41 50 52 52 49 46 54 53 50 49 60 68 56 52 55
Wind_Direction_500mb
356 353 348 345 348 349 347 337 331 324 315 316 320 318 312 315 317 322 314 304 291 289 297 296 280 271 239 209 184 167 223 231 228 192 215 169 199 182 204 195 166 184 106 154 173
341 341 346 351 352 354 351 345 341 336 330 326 319 315 312 317 319 310 283 274 276 290 298 293 264 242 202 187 183 215 225 225 227 209 240 182 209 170 206 189 190 176 206 192 178
354 1 357 355 357 351 346 342 339 337 333 328 327 325 320 333 321 231 250 264 269 277 285 295 298 244 200 189 191 190 237 230 227 225 250 210 221 215 208 224 215 198 181 201 196
5 359 352 353 353 350 347 345 342 338 336 332 329 323 320 335 288 232 252 271 283 281 283 285 267 249 230 208 188 229 231 221 242 208 203 238 274 249 251 245 104 107 167 230 217
7 3 360 356 355 351 353 349 344 339 334 333 329 318 323 326 263 257 267 278 285 287 289 272 254 226 233 218 209 231 225 217 252 267 244 247 239 250 248 253 258 258 257 250 243
2 1 359 355 353 352 349 347 344 334 330 332 330 313 304 277 280 284 280 287 284 284 281 264 226 216 220 228 239 100 267 263 272 251 259 241 250 223 240 250 250 254 255 250 244
4 358 356 356 355 353 353 351 341 327 332 338 341 311 269 270 333 358 329 322 303 275 262 247 204 206 176 188 306 266 271 258 237 242 248 200 249 235 244 249 244 247 252 253 250
358 352 353 353 353 354 354 352 337 344 358 340 28 6 282 10 59 42 37 15 359 329 247 228 221 171 218 284 195 232 232 256 213 217 228 214 258 251 235 247 249 251 249 255 258
353 360 3 360 358 355 353 355 345 87 346 29 23 3 28 29 358 21 1 2 16 21 136 180 199 230 173 226 244 217 258 245 270 210 243 215 263 259 267 247 261 257 256 266 270
358 353 354 356 355 352 354 0 25 38 36 45 11 61 21 329 310 324 4 7 22 38 90 135 175 212 207 212 235 250 239 245 251 157 239 252 255 263 263 285 280 282 280 273 271
351 349 351 358 353 354 357 19 29 16 25 20 336 341 334 359 44 2 344 357 24 57 16 312 243 235 260 244 273 274 266 257 246 284 316 263 270 268 268 275 272 274 276 272 266
350 347 351 354 355 2 5 42 34 342 320 14 14 11 7 12 11 22 14 7 332 314 309 268 253 267 341 255 250 252 261 264 282 275 260 275 274 274 268 264 261 262 264 267 270
343 345 350 354 359 4 12 16 5 348 298 326 3 7 2 358 14 353 12 0 7 359 345 274 290 288 311 273 236 241 251 259 264 283 280 274 275 263 254 252 256 256 256 261 263
341 345 348 358 5 356 2 349 348 344 358 7 1 19 1 344 21 353 16 10 351 331 334 301 325 267 272 256 264 265 272 255 256 263 262 202 280 284 259 267 249 255 253 261 267
340 346 348 355 345 346 334 335 342 357 67 343 355 357 345 10 312 297 344 315 315 325 296 352 313 316 293 273 232 283 53 259 266 259 263 242 263 244 241 258 255 258 207 22 74
338 342 340 340 340 337 333 333 349 277 39 339 344 345 345 333 328 306 329 321 311 278 231 277 268 271 261 291 255 264 250 249 278 260 239 249 227 275 263 271 283 324 82 84 67
331 335 332 334 332 338 336 345 33 82 357 355 333 334 325 325 323 11 338 312 293 296 277 300 281 239 235 269 202 227 240 256 232 207 247 280 213 255 272 235 20 111 87 52 45
327 331 328 331 333 343 342 56 88 149 268 342 328 313 313 356 325 333 310 296 262 227 281 277 279 207 179 253 314 262 259 261 262 247 271 136 235 241 92 90 91 101 73 44 34
322 329 324 325 345 0 350 64 191 197 295 320 317 285 301 303 337 324 296 292 293 205 277 275 250 270 225 202 250 139 230 350 295 268 267 254 243 256 145 104 103 81 60 38 19
314 322 304 302 2 6 49 272 210 215 316 311 278 247 297 320 327 331 300 304 285 239 317 306 280 263 270 217 234 243 3 246 225 264 263 249 253 256 129 171 135 58 33 19 10
306 306 275 237 352 21 188 238 247 235 206 230 241 261 256 295 270 302 270 285 280 294 198 226 242 247 233 229 257 207 230 210 277 264 268 271 262 85 55 144 295 317 313 329 333
268 262 229 187 118 51 186 199 244 246 207 248 256 254 247 273 267 260 246 254 296 290 282 236 256 266 264 268 257 254 249 229 241 240 249 273 265 284 282 275 277 284 283 305 315
219 224 214 185 226 204 228 245 239 226 227 197 231 221 221 250 282 243 283 256 301 275 265 171 239 270 258 223 215 242 238 241 248 268 263 263 266 265 268 265 262 279 294 304 308
218 205 183 201 228 179 197 222 233 231 237 233 246 241 248 244 240 268 273 295 307 299 272 266 228 242 258 262 357 237 243 236 231 253 254 254 266 269 274 277 278 276 282 289 291
224 223 191 190 223 210 191 180 191 225 221 215 244 227 214 246 250 255 269 285 292 285 269 248 260 252 261 251 259 263 264 256 243 244 256 265 269 269 269 270 279 289 285 284 281
236 198 198 223 201 200 203 204 217 220 190 218 227 237 229 235 235 281 281 279 271 274 262 248 279 301 285 271 267 262 257 254 253 258 258 254 260 262 266 273 277 278 276 275 271
243 241 228 193 185 189 210 218 217 219 225 227 233 242 231 237 260 273 271 267 257 263 266 264 263 259 267 275 287 266 240 246 252 254 247 252 250 263 270 263 262 270 284 271 264
Wind_Speed_850mb
32 34 37 39 36 36 31 34 33 33 34 38 39 41 45 39 35 31 19 19 22 23 20 18 14 12 9 10 11 11 11 19 16 15 6 11 13 7 4 6 7 7 3 11 15
35 40 38 36 36 35 36 37 37 37 39 40 39 39 41 38 35 24 19 19 18 17 13 12 10 8 7 8 9 16 14 22 7 10 4 8 10 10 8 10 10 11 10 9 16
30 30 33 34 33 36 37 37 38 37 37 39 41 41 37 32 26 11 11 12 13 13 12 10 9 3 11 9 13 9 23 16 8 11 5 4 7 3 7 10 8 7 12 12 18
33 31 33 34 34 37 39 39 39 40 42 43 42 40 35 25 10 7 11 16 19 16 15 13 6 4 6 11 9 13 15 11 3 7 8 11 6 14 17 19 3 5 3 10 18
31 33 36 38 39 40 40 40 40 42 43 43 40 33 30 11 12 26 26 24 24 23 18 14 10 7 12 5 5 15 8 7 8 9 14 9 19 23 19 30 26 28 25 18 18
35 37 36 38 40 41 42 42 41 42 44 35 35 19 13 9 12 21 26 25 25 22 15 7 8 12 6 6 11 0 8 14 9 12 10 13 22 16 23 35 42 36 36 32 27
37 38 39 40 41 43 44 44 43 44 38 34 28 10 10 19 16 18 20 20 22 24 19 6 4 7 7 4 2 3 15 18 21 14 9 9 29 27 45 45 39 39 38 34 35
40 42 41 42 43 45 48 51 54 32 27 26 14 13 4 9 16 26 26 20 17 11 17 20 13 3 4 1 3 8 8 25 9 19 19 19 51 20 24 39 40 38 39 34 35
39 38 39 41 45 43 51 53 36 10 45 10 11 14 6 5 13 15 23 29 15 13 5 4 10 9 6 10 12 12 33 33 22 20 8 33 44 25 7 24 27 21 16 16 21
36 40 42 44 45 47 54 46 12 12 21 13 30 3 17 27 27 21 19 22 12 6 7 4 6 9 7 16 30 25 23 23 31 5 15 32 39 26 30 30 33 39 37 33 33
38 43 46 43 41 47 55 52 31 13 37 15 16 7 23 36 24 15 12 17 7 10 7 4 9 14 13 19 24 20 17 22 9 8 17 28 37 33 32 39 40 46 51 52 48
39 42 43 44 33 41 43 30 24 15 15 22 21 22 22 31 17 37 26 8 8 14 12 8 17 9 8 12 18 21 28 35 26 20 25 34 50 44 41 52 58 55 56 58 58
38 42 41 42 27 39 34 38 31 26 7 14 15 17 22 20 12 25 34 14 13 15 15 17 9 10 17 12 17 21 26 25 26 22 27 29 47 41 34 45 51 52 53 53 52
38 39 39 36 22 37 22 34 31 18 3 18 13 14 22 19 4 17 24 14 9 16 17 7 7 14 20 25 20 29 11 21 24 18 15 4 18 20 13 20 22 30 27 28 27
35 34 32 32 32 27 29 30 28 4 4 25 9 12 26 13 20 5 30 8 14 16 6 13 14 15 16 15 16 17 1 10 17 23 23 31 17 8 4 17 17 16 6 1 7
32 31 30 30 32 25 24 27 9 3 4 8 9 22 28 28 17 16 13 10 5 7 10 19 9 10 11 14 17 7 13 18 12 14 18 32 25 23 20 20 12 8 9 12 10
29 29 31 29 21 19 21 13 2 6 5 9 13 20 34 15 14 11 24 19 9 9 12 17 20 5 9 12 5 16 12 8 11 12 19 6 18 32 11 7 4 10 12 12 14
29 29 31 25 14 17 18 4 5 2 8 7 11 29 8 16 12 23 18 18 11 10 16 14 13 9 13 7 5 6 10 12 13 14 12 6 13 13 11 17 23 20 14 17 21
30 29 26 14 6 16 8 4 6 10 1 11 19 4 5 5 12 14 10 15 9 9 9 8 10 4 11 4 4 5 11 6 12 20 16 18 18 20 15 19 18 19 20 21 26
28 27 17 5 1 15 5 2 4 6 2 3 5 2 7 15 12 11 9 5 10 3 1 6 13 15 7 4 17 16 4 10 8 11 21 19 25 20 9 13 10 7 18 18 23
24 13 8 6 1 5 3 7 8 12 7 6 7 7 12 10 6 9 11 19 20 13 7 3 10 12 3 14 24 11 13 11 7 10 15 24 17 6 6 7 5 11 14 19 31
12 6 11 9 1 2 4 9 4 9 11 13 11 19 15 14 11 10 13 10 24 9 19 10 7 15 31 24 13 20 27 27 16 19 16 23 29 29 27 28 27 30 20 31 39
11 10 13 14 6 7 4 8 11 11 10 11 10 17 13 9 10 16 21 14 36 17 10 6 9 13 12 10 9 14 27 27 16 12 31 30 33 24 30 20 29 36 50 51 59
11 6 9 25 16 8 9 11 9 16 17 14 13 17 16 11 20 15 25 19 13 36 41 33 14 26 30 25 4 11 18 26 27 17 32 33 49 46 47 47 47 44 44 49 52
21 12 16 10 16 26 19 12 12 9 21 18 8 28 18 9 15 27 31 28 35 37 27 10 22 28 31 34 43 43 38 32 28 41 37 45 47 47 48 51 55 58 60 54 52
25 13 16 8 12 26 24 18 33 24 17 14 22 27 26 21 27 35 37 28 24 18 15 8 19 19 29 38 40 40 40 43 53 56 50 53 54 55 68 72 70 70 65 53 56
41 50 30 23 14 14 18 30 30 23 28 44 27 24 25 44 47 50 50 49 35 31 32 24 18 17 36 37 34 28 41 50 52 52 49 46 54 53 50 49 60 68 56 52 55
Wind_Direction_850mb
356 353 348 345 348 349 347 337 331 324 315 316 320 318 312 315 317 322 314 304 291 289 297 296 280 271 239 209 184 167 223 231 228 192 215 169 199 182 204 195 166 184 106 154 173
341 341 346 351 352 354 351 345 341 336 330 326 319 315 312 317 319 310 283 274 276 290 298 293 264 242 202 187 183 215 225 225 227 209 240 182 209 170 206 189 190 176 206 192 178
354 1 357 355 357 351 346 342 339 337 333 328 327 325 320 333 321 231 250 264 269 277 285 295 298 244 200 189 191 190 237 230 227 225 250 210 221 215 208 224 215 198 181 201 196
5 359 352 353 353 350 347 345 342 338 336 332 329 323 320 335 288 232 252 271 283 281 283 285 267 249 230 208 188 229 231 221 242 208 203 238 274 249 251 245 104 107 167 230 217
7 3 360 356 355 351 353 349 344 339 334 333 329 318 323 326 263 257 267 278 285 287 289 272 254 226 233 218 209 231 225 217 252 267 244 247 239 250 248 253 258 258 257 250 243
2 1 359 355 353 352 349 347 344 334 330 332 330 313 304 277 280 284 280 287 284 284 281 264 226 216 220 228 239 100 267 263 272 251 259 241 250 223 240 250 250 254 255 250 244
4 358 356 356 355 353 353 351 341 327 332 338 341 311 269 270 333 358 329 322 303 275 262 247 204 206 176 188 306 266 271 258 237 242 248 200 249 235 244 249 244 247 252 253 250
358 352 353 353 353 354 354 352 337 344 358 340 28 6 282 10 59 42 37 15 359 329 247 228 221 171 218 284 195 232 232 256 213 217 228 214 258 251 235 247 249 251 249 255 258
353 360 3 360 358 355 353 355 345 87 346 29 23 3 28 29 358 21 1 2 16 21 136 180 199 230 173 226 244 217 258 245 270 210 243 215 263 259 267 247 261 257 256 266 270
358 353 354 356 355 352 354 0 25 38 36 45 11 61 21 329 310 324 4 7 22 38 90 135 175 212 207 212 235 250 239 245 251 157 239 252 255 263 263 285 280 282 280 273 271
351 349 351 358 353 354 357 19 29 16 25 20 336 341 334 359 44 2 344 357 24 57 16 312 243 235 260 244 273 274 266 257 246 284 316 263 270 268 268 275 272 274 276 272 266
350 347 351 354 355 2 5 42 34 342 320 14 14 11 7 12 11 22 14 7 332 314 309 268 253 267 341 255 250 252 261 264 282 275 260 275 274 274 268 264 261 262 264 267 270
343 345 350 354 359 4 12 16 5 348 298 326 3 7 2 358 14 353 12 0 7 359 345 274 290 288 311 273 236 241 251 259 264 283 280 274 275 263 254 252 256 256 256 261 263
341 345 348 358 5 356 2 349 348 344 358 7 1 19 1 344 21 353 16 10 351 331 334 301 325 267 272 256 264 265 272 255 256 263 262 202 280 284 259 267 249 255 253 261 267
340 346 348 355 345 346 334 335 342 357 67 343 355 357 345 10 312 297 344 315 315 325 296 352 313 316 293 273 232 283 53 259 266 259 263 242 263 244 241 258 255 258 207 22 74
338 342 340 340 340 337 333 333 349 277 39 339 344 345 345 333 328 306 329 321 311 278 231 277 268 271 261 291 255 264 250 249 278 260 239 249 227 275 263 271 283 324 82 84 67
331 335 332 334 332 338 336 345 33 82 357 355 333 334 325 325 323 11 338 312 293 296 277 300 281 239 235 269 202 227 240 256 232 207 247 280 213 255 272 235 20 111 87 52 45
327 331 328 331 333 343 342 56 88 149 268 342 328 313 313 356 325 333 310 296 262 227 281 277 279 207 179 253 314 262 259 261 262 247 271 136 235 241 92 90 91 101 73 44 34
322 329 324 325 345 0 350 64 191 197 295 320 317 285 301 303 337 324 296 292 293 205 277 275 250 270 225 202 250 139 230 350 295 268 267 254 243 256 145 104 103 81 60 38 19
314 322 304 302 2 6 49 272 210 215 316 311 278 247 297 320 327 331 300 304 285 239 317 306 280 263 270 217 234 243 3 246 225 264 263 249 253 256 129 171 135 58 33 19 10
306 306 275 237 352 21 188 238 247 235 206 230 241 261 256 295 270 302 270 285 280 294 198 226 242 247 233 229 257 207 230 210 277 264 268 271 262 85 55 144 295 317 313 329 333
268 262 229 187 118 51 186 199 244 246 207 248 256 254 247 273 267 260 246 254 296 290 282 236 256 266 264 268 257 254 249 229 241 240 249 273 265 284 282 275 277 284 283 305 315
219 224 214 185 226 204 228 245 239 226 227 197 231 221 221 250 282 243 283 256 301 275 265 171 239 270 258 223 215 242 238 241 248 268 263 263 266 265 268 265 262 279 294 304 308
218 205 183 201 228 179 197 222 233 231 237 233 246 241 248 244 240 268 273 295 307 299 272 266 228 242 258 262 357 237 243 236 231 253 254 254 266 269 274 277 278 276 282 289 291
224 223 191 190 223 210 191 180 191 225 221 215 244 227 214 246 250 255 269 285 292 285 269 248 260 252 261 251 259 263 264 256 243 244 256 265 269 269 269 270 279 289 285 284 281
236 198 198 223 201 200 203 204 217 220 190 218 227 237 229 235 235 281 281 279 271 274 262 248 279 301 285 271 267 262 257 254 253 258 258 254 260 262 266 273 277 278 276 275 271
243 241 228 193 185 189 210 218 217 219 225 227 233 242 231 237 260 273 271 267 257 263 266 264 263 259 267 275 287 266 240 246 252 254 247 252 250 263 270 263 262 270 284 271 264